Dewpoint
56 54 42 41 44 45 47 48 49 51 49 52 50 49 48 48 49 48 47 47 47 48 48 48 49 49 47 47 47 47 44 42 37 35 34 33 29 24 30 33 33 27 25
58 56 43 43 43 45 47 47 48 51 48 50 50 49 48 47 48 48 49 49 48 46 49 49 48 48 47 47 44 43 41 40 35 31 31 26 28 25 26 27 26 26 27
58 56 46 44 45 44 47 47 48 50 48 49 49 49 48 50 49 49 49 48 47 49 49 48 48 48 48 45 42 40 38 34 32 29 28 22 22 24 25 22 24 24 26
57 57 53 46 44 44 45 48 48 49 48 48 48 47 45 46 47 48 48 48 47 49 49 48 48 46 44 42 40 37 34 32 28 28 27 26 26 22 21 23 24 25 24
57 58 53 46 45 46 45 46 48 48 48 48 47 46 45 45 48 49 47 47 48 48 48 48 45 43 43 42 38 34 32 33 30 29 27 25 25 24 22 20 23 25 25
56 54 55 50 48 49 49 46 48 47 47 48 47 46 45 46 47 48 47 49 48 48 49 45 43 42 41 39 37 34 31 32 31 30 30 27 25 23 23 23 23 23 24
55 54 55 53 50 47 50 47 47 47 47 47 48 47 47 47 48 47 47 48 48 47 46 43 41 40 39 38 34 34 31 31 31 29 29 29 29 27 27 25 24 23 24
53 52 55 54 52 49 51 47 46 46 48 48 49 48 50 50 49 48 49 49 48 47 45 41 40 39 38 36 33 33 32 31 30 29 28 29 30 29 29 26 25 23 23
46 53 54 55 55 52 52 47 46 46 47 48 51 49 51 50 50 49 50 49 49 44 41 39 39 37 34 33 33 31 29 30 29 29 28 28 28 28 29 27 27 25 22
47 47 52 54 54 54 53 48 46 47 49 49 51 50 52 51 50 51 50 49 45 41 39 39 37 34 34 32 32 29 28 29 28 28 26 27 26 27 28 29 28 26 25
46 48 52 54 54 54 54 50 47 48 50 50 51 52 52 51 52 49 48 45 42 40 40 39 35 35 33 31 28 28 27 27 26 26 27 27 27 28 28 28 27 26 26
45 51 53 55 54 54 54 50 47 49 50 50 51 52 52 52 48 47 45 43 41 41 40 36 35 33 31 29 28 26 27 26 26 26 26 26 26 25 25 24 23 24 24
45 49 52 52 54 53 52 50 50 50 50 50 51 52 52 49 47 46 43 42 41 39 35 35 33 32 31 28 27 27 26 25 26 26 25 26 24 21 22 22 23 23 21
44 45 47 49 52 53 52 51 50 51 50 51 52 52 49 47 46 44 42 41 38 35 35 34 32 32 29 27 27 26 24 24 26 27 26 26 24 22 21 21 22 22 22
43 44 45 47 49 52 52 51 50 50 49 49 51 49 48 47 44 42 40 37 36 36 34 32 31 29 25 23 24 24 25 23 22 25 24 27 27 25 23 22 22 22 22
43 43 44 46 47 49 50 52 52 51 49 51 50 48 47 45 42 39 37 36 36 33 32 31 31 24 20 26 25 22 22 25 24 23 24 24 28 26 27 26 27 25 23
42 43 43 45 46 47 49 49 49 49 50 50 48 47 45 41 39 37 36 35 32 32 31 31 25 24 24 25 23 24 22 24 26 22 23 23 25 25 23 22 22 22 24
42 43 44 45 46 47 48 49 48 49 49 48 46 44 42 39 37 35 34 33 32 30 30 30 27 24 23 24 22 22 20 22 24 23 23 24 23 24 23 21 19 19 20
42 43 45 46 46 46 47 47 47 47 47 46 44 42 39 37 35 33 33 32 31 31 29 30 26 23 22 24 22 20 20 22 22 25 24 23 22 22 22 20 19 18 19
42 43 44 45 45 44 45 45 45 46 45 44 42 39 38 36 34 33 32 31 31 29 28 28 25 24 21 23 22 18 19 19 19 23 23 24 22 21 21 20 19 18 18
41 43 43 43 43 44 44 43 44 44 44 42 39 37 36 34 33 32 31 31 29 28 27 26 26 22 22 23 23 23 19 18 18 19 22 22 23 21 22 22 20 20 21
41 42 42 42 42 43 43 42 42 41 40 38 36 34 33 30 31 30 30 29 27 25 25 24 23 23 22 24 25 24 23 22 20 20 21 21 22 22 22 23 22 22 25
40 41 41 41 42 42 42 40 40 37 36 34 33 32 31 29 30 28 28 27 26 24 23 23 23 24 23 24 27 26 25 24 22 24 22 20 21 22 23 24 25 24 22
40 40 40 40 40 40 40 39 37 36 34 32 31 28 27 28 27 26 27 26 25 25 23 23 23 24 24 24 24 24 25 25 24 21 20 22 24 23 22 23 23 23 21
40 39 39 40 39 40 39 38 36 34 32 29 27 26 27 26 26 26 26 25 26 26 25 24 25 25 23 23 24 23 23 22 22 18 19 20 19 16 16 19 20 20 21
42 39 39 40 39 39 38 35 34 32 30 27 26 26 26 25 23 23 23 28 28 30 29 28 27 25 25 24 23 22 21 20 19 19 13 11 11 13 14 13 15 17 17
Lifted_Index
-1 -1 -1 -0 1 2 4 6 6 6 6 6 6 6 7 7 7 8 8 8 8 8 8 7 7 7 8 8 9 10 10 11 12 14 15 14 13 13 16 17 18 19 19
-1 -1 -1 -1 0 2 3 5 6 6 6 5 6 6 6 7 7 8 8 8 8 8 7 7 7 7 8 8 9 10 10 11 13 15 16 15 13 14 16 18 19 19 20
-1 -1 -1 -2 -1 0 2 4 5 5 5 5 5 5 6 6 7 7 8 8 8 8 7 7 7 8 8 8 9 10 10 11 14 16 17 16 15 15 16 18 19 20 20
-1 -1 -1 -2 -2 -1 0 2 4 5 5 5 5 5 5 6 6 7 7 7 7 7 7 7 8 8 8 9 9 10 11 12 15 18 19 18 18 16 16 17 19 19 20
-1 -1 -1 -2 -2 -1 -0 1 3 4 4 4 4 5 5 5 6 6 7 7 7 7 7 7 8 8 9 9 10 10 11 13 17 19 20 20 19 18 17 17 18 19 20
-1 -1 -1 -1 -2 -1 -1 0 2 4 4 4 5 5 5 5 5 5 6 6 6 6 6 7 8 8 9 10 10 11 13 15 19 20 20 20 20 20 19 18 18 19 20
-1 -1 -1 -1 -2 -2 -1 -0 2 4 4 4 5 5 5 5 5 5 5 5 5 6 6 7 8 8 9 10 11 12 14 18 20 21 21 21 21 20 20 20 20 19 20
-1 -1 -1 -1 -2 -2 -2 -1 1 3 4 4 5 5 5 4 4 4 4 4 5 5 6 7 8 9 10 11 12 14 17 20 21 22 22 22 22 21 21 21 20 19 19
-1 -1 -2 -2 -2 -2 -2 -1 0 2 3 4 4 4 4 3 3 3 4 4 4 5 6 6 8 9 10 11 13 16 19 21 22 22 22 22 22 22 21 21 21 20 19
-1 -2 -2 -2 -2 -2 -2 -2 -1 0 2 3 4 4 3 3 3 3 3 3 4 4 5 6 7 9 11 12 15 18 21 22 22 22 22 22 22 22 22 21 21 21 21
-1 -1 -2 -2 -2 -2 -2 -2 -2 -1 0 2 3 3 3 3 3 3 3 3 3 4 5 6 8 9 11 14 17 20 22 22 22 23 23 23 23 22 22 21 21 21 22
-1 -1 -2 -2 -2 -2 -2 -2 -2 -1 -0 1 2 2 2 2 2 2 2 2 3 4 5 6 8 10 12 15 19 21 22 22 22 23 23 23 23 23 22 22 22 22 22
-0 -1 -2 -2 -2 -2 -2 -1 -1 -1 -1 0 1 2 2 2 2 2 2 2 3 4 5 7 9 11 13 17 20 22 22 22 22 23 23 23 23 23 23 23 23 23 23
0 -0 -1 -2 -2 -2 -1 -1 -1 -1 -0 0 1 1 1 2 2 2 2 2 3 4 6 8 10 12 15 19 21 22 22 23 23 23 23 23 23 23 23 23 23 23 23
1 1 -0 -1 -2 -1 -1 -1 -1 -0 -0 0 1 1 1 2 2 2 3 3 4 5 7 9 11 14 17 20 22 23 23 23 23 23 23 23 23 23 23 23 23 24 24
2 1 1 0 -0 -1 -1 -1 -0 -0 0 1 1 1 2 2 2 3 3 3 5 6 8 10 12 15 18 21 23 23 23 23 23 23 23 23 23 23 23 23 24 24 24
1 1 1 1 1 0 0 -0 0 0 1 1 1 2 2 3 3 4 4 5 6 7 8 10 13 16 19 22 23 24 23 23 23 23 23 23 23 23 23 24 24 24 25
1 1 1 1 1 1 1 1 1 1 1 1 2 2 3 3 4 4 5 6 7 8 9 12 15 18 20 22 23 23 23 23 23 23 23 23 23 23 24 24 24 24 25
-0 0 1 1 1 2 2 2 1 1 2 2 2 2 3 4 5 5 6 7 8 9 11 14 16 19 21 22 23 23 23 23 23 23 23 23 24 24 24 24 24 24 24
-1 -1 -0 0 1 2 2 2 2 2 2 3 3 3 4 5 6 6 7 8 9 10 13 16 18 20 21 22 23 23 23 23 23 23 23 24 24 24 25 25 24 24 24
-2 -1 -1 -1 0 1 2 3 3 3 4 4 4 4 5 6 7 7 8 9 10 12 14 16 18 20 21 22 22 23 23 23 24 24 24 25 25 25 25 25 25 25 25
-2 -1 -1 -1 0 1 2 3 4 4 5 5 5 6 6 7 8 8 9 10 12 13 15 17 18 20 21 22 22 23 23 23 24 24 25 25 26 26 26 26 26 26 26
-1 -1 -1 -1 0 2 3 3 4 5 5 5 6 6 7 8 9 9 10 11 13 14 16 17 18 19 20 21 22 22 22 23 24 25 26 26 26 27 26 26 26 26 26
-0 -0 -1 -0 0 2 3 4 5 5 5 6 7 7 8 8 9 11 12 13 14 15 16 18 18 19 20 21 21 22 22 23 24 25 26 26 26 26 26 26 26 26 26
0 0 -0 -0 1 2 3 4 5 5 6 6 7 8 8 8 9 11 13 15 17 17 18 18 19 19 20 20 21 21 22 23 24 25 26 26 26 26 26 27 26 26 26
1 0 0 0 1 2 3 4 5 5 6 6 7 8 8 8 9 11 13 16 18 19 19 19 19 20 20 21 21 21 22 24 25 25 25 25 26 26 27 27 26 26 26